• In Russia
  • List of Countries
  • For 7 days
  • Water Temperature
  • Satellite Maps
  • Weather Map
  • Weather Widgets
  • user-avatar
    Login

    Hourly Weather Dikhil

    Today, 24 June, Monday

    Time Temperature Precipitation Wind Pressure Humidity
    00:00 +37°C° 0 mm 4 mps 713 mmHg 34%
    01:00 +36°C° 0 mm 3 mps 713 mmHg 36%
    02:00 +36°C° 0 mm 2 mps 713 mmHg 38%
    03:00 +34°C° 0 mm 1 mps 712 mmHg 42%
    04:00 +34°C° 0 mm 1 mps 713 mmHg 42%
    05:00 +33°C° 0 mm 1 mps 713 mmHg 42%
    06:00 +33°C° 0 mm 1 mps 714 mmHg 43%
    07:00 +35°C° 0 mm 2 mps 714 mmHg 39%
    08:00 +36°C° 0 mm 3 mps 714 mmHg 34%
    09:00 +38°C° 0 mm 4 mps 714 mmHg 30%
    10:00 +40°C° 0 mm 4 mps 714 mmHg 28%
    11:00 +41°C° 0 mm 4 mps 714 mmHg 25%
    12:00 +42°C° 0 mm 4 mps 714 mmHg 22%
    13:00 +42°C° 0 mm 3 mps 713 mmHg 21%
    14:00 +42°C° 0 mm 2 mps 712 mmHg 19%
    15:00 +43°C° 0 mm 2 mps 711 mmHg 14%
    16:00 +43°C° 0 mm 4 mps 711 mmHg 16%
    17:00 +43°C° 0 mm 5 mps 711 mmHg 19%
    18:00 +43°C° 0 mm 7 mps 712 mmHg 22%
    19:00 +41°C° 0 mm 7 mps 712 mmHg 26%
    20:00 +39°C° 0 mm 7 mps 712 mmHg 30%
    21:00 +38°C° 0 mm 7 mps 713 mmHg 35%
    22:00 +36°C° 0 mm 6 mps 713 mmHg 37%
    23:00 +35°C° 0 mm 5 mps 713 mmHg 40%

    Tomorrow, 25 June, Tuesday

    Time Temperature Precipitation Wind Pressure Humidity
    00:00 +34°C° 0 mm 5 mps 714 mmHg 42%
    01:00 +34°C° 0 mm 5 mps 713 mmHg 45%
    02:00 +34°C° 0 mm 4 mps 713 mmHg 47%
    03:00 +33°C° 0 mm 4 mps 713 mmHg 49%
    04:00 +33°C° 0 mm 3 mps 713 mmHg 50%
    05:00 +31°C° 0 mm 2 mps 713 mmHg 51%
    06:00 +31°C° 0 mm 1 mps 714 mmHg 52%
    07:00 +32°C° 0 mm 2 mps 714 mmHg 47%
    08:00 +35°C° 0 mm 2 mps 715 mmHg 42%
    09:00 +36°C° 0 mm 3 mps 715 mmHg 38%
    10:00 +37°C° 0 mm 2 mps 715 mmHg 33%
    11:00 +38°C° 0 mm 2 mps 714 mmHg 29%
    12:00 +40°C° 0 mm 1 mps 714 mmHg 25%
    13:00 +40°C° 0 mm 1 mps 714 mmHg 22%
    14:00 +41°C° 0 mm 1 mps 713 mmHg 19%
    15:00 +42°C° 0 mm 1 mps 712 mmHg 16%
    16:00 +42°C° 0 mm 2 mps 713 mmHg 17%
    17:00 +43°C° 0 mm 3 mps 713 mmHg 17%
    18:00 +43°C° 0 mm 4 mps 713 mmHg 17%
    19:00 +42°C° 0 mm 5 mps 713 mmHg 20%
    20:00 +40°C° 0 mm 5 mps 713 mmHg 24%
    21:00 +39°C° 0 mm 6 mps 714 mmHg 27%
    22:00 +37°C° 0 mm 5 mps 714 mmHg 28%
    23:00 +37°C° 0 mm 4 mps 714 mmHg 30%

    Day after tomorrow, 26 June, Wednesday

    Time Temperature Precipitation Wind Pressure Humidity
    00:00 +36°C° 0 mm 4 mps 714 mmHg 32%
    01:00 +35°C° 0 mm 3 mps 714 mmHg 33%
    02:00 +35°C° 0 mm 2 mps 713 mmHg 35%
    03:00 +33°C° 0 mm 1 mps 713 mmHg 37%
    04:00 +33°C° 0 mm 1 mps 713 mmHg 38%
    05:00 +32°C° 0 mm 1 mps 714 mmHg 40%
    06:00 +32°C° 0 mm 1 mps 714 mmHg 41%
    07:00 +34°C° 0 mm 2 mps 714 mmHg 38%
    08:00 +36°C° 0 mm 3 mps 715 mmHg 35%
    09:00 +37°C° 0 mm 4 mps 715 mmHg 32%
    10:00 +38°C° 0 mm 3 mps 715 mmHg 28%
    11:00 +40°C° 0 mm 3 mps 715 mmHg 23%
    12:00 +41°C° 0 mm 2 mps 715 mmHg 19%
    13:00 +42°C° 0 mm 2 mps 714 mmHg 18%
    14:00 +42°C° 0 mm 2 mps 713 mmHg 17%
    15:00 +43°C° 0 mm 1 mps 712 mmHg 16%
    16:00 +43°C° 0 mm 2 mps 712 mmHg 15%
    17:00 +43°C° 0 mm 2 mps 712 mmHg 15%
    18:00 +43°C° 0 mm 2 mps 712 mmHg 15%
    19:00 +43°C° 0 mm 3 mps 712 mmHg 18%
    20:00 +42°C° 0 mm 3 mps 713 mmHg 21%
    21:00 +40°C° 0 mm 3 mps 713 mmHg 24%
    22:00 +39°C° 0 mm 3 mps 713 mmHg 26%
    23:00 +39°C° 0 mm 3 mps 713 mmHg 27%

    27 June, Thursday

    Time Temperature Precipitation Wind Pressure Humidity
    00:00 +38°C° 0 mm 3 mps 713 mmHg 29%
    01:00 +38°C° 0 mm 2 mps 712 mmHg 29%
    02:00 +37°C° 0 mm 2 mps 712 mmHg 30%
    03:00 +36°C° 0 mm 1 mps 712 mmHg 30%
    04:00 +37°C° 0 mm 2 mps 712 mmHg 32%
    05:00 +36°C° 0 mm 4 mps 712 mmHg 33%
    06:00 +35°C° 0 mm 5 mps 712 mmHg 35%
    07:00 +38°C° 0 mm 6 mps 712 mmHg 33%
    08:00 +39°C° 0 mm 6 mps 713 mmHg 30%
    09:00 +40°C° 0 mm 7 mps 713 mmHg 28%
    10:00 +41°C° 0 mm 6 mps 713 mmHg 24%
    11:00 +44°C° 0 mm 6 mps 713 mmHg 21%
    12:00 +45°C° 0 mm 6 mps 712 mmHg 17%
    13:00 +46°C° 0 mm 5 mps 712 mmHg 15%
    14:00 +47°C° 0 mm 5 mps 711 mmHg 13%
    15:00 +48°C° 0 mm 4 mps 710 mmHg 10%
    16:00 +47°C° 0 mm 5 mps 710 mmHg 10%
    17:00 +47°C° 0 mm 5 mps 710 mmHg 10%
    18:00 +47°C° 0 mm 5 mps 710 mmHg 10%
    19:00 +46°C° 0 mm 5 mps 710 mmHg 12%
    20:00 +44°C° 0 mm 4 mps 711 mmHg 14%
    21:00 +42°C° 0 mm 4 mps 711 mmHg 16%
    22:00 +41°C° 0 mm 4 mps 711 mmHg 19%
    23:00 +39°C° 0 mm 3 mps 711 mmHg 23%

    28 June, Friday

    Time Temperature Precipitation Wind Pressure Humidity
    00:00 +37°C° 0 mm 3 mps 711 mmHg 26%
    01:00 +37°C° 0 mm 3 mps 711 mmHg 28%
    02:00 +36°C° 0 mm 3 mps 710 mmHg 31%
    03:00 +36°C° 0 mm 3 mps 710 mmHg 33%
    04:00 +35°C° 0 mm 4 mps 711 mmHg 35%
    05:00 +34°C° 0 mm 6 mps 711 mmHg 37%
    06:00 +34°C° 0 mm 7 mps 711 mmHg 40%
    07:00 +35°C° 0 mm 7 mps 712 mmHg 36%
    08:00 +38°C° 0 mm 8 mps 712 mmHg 32%
    09:00 +39°C° 0 mm 8 mps 712 mmHg 28%
    10:00 +41°C° 0 mm 7 mps 712 mmHg 25%
    11:00 +42°C° 0 mm 6 mps 712 mmHg 21%
    12:00 +45°C° 0 mm 6 mps 711 mmHg 18%
    13:00 +45°C° 0 mm 5 mps 711 mmHg 16%
    14:00 +45°C° 0 mm 4 mps 710 mmHg 15%
    15:00 +46°C° 0 mm 3 mps 710 mmHg 13%
    16:00 +45°C° 0 mm 4 mps 710 mmHg 15%
    17:00 +46°C° 0 mm 6 mps 709 mmHg 16%
    18:00 +45°C° 0 mm 7 mps 709 mmHg 18%
    19:00 +43°C° 0 mm 7 mps 710 mmHg 22%
    20:00 +40°C° 0 mm 7 mps 711 mmHg 27%
    21:00 +38°C° 0 mm 7 mps 711 mmHg 32%
    22:00 +37°C° 0 mm 5 mps 712 mmHg 32%
    23:00 +36°C° 0 mm 4 mps 712 mmHg 33%

    29 June, Saturday

    Time Temperature Precipitation Wind Pressure Humidity
    00:00 +36°C° 0 mm 2 mps 712 mmHg 33%
    01:00 +36°C° 0 mm 3 mps 712 mmHg 34%
    02:00 +35°C° 0 mm 4 mps 711 mmHg 35%
    03:00 +35°C° 0 mm 5 mps 711 mmHg 36%
    04:00 +34°C° 0 mm 6 mps 711 mmHg 37%
    05:00 +34°C° 0 mm 6 mps 712 mmHg 37%
    06:00 +34°C° 0 mm 6 mps 712 mmHg 37%
    07:00 +35°C° 0 mm 7 mps 712 mmHg 34%
    08:00 +36°C° 0 mm 7 mps 713 mmHg 32%
    09:00 +38°C° 0 mm 7 mps 713 mmHg 29%
    10:00 +40°C° 0 mm 7 mps 713 mmHg 26%
    11:00 +41°C° 0 mm 6 mps 712 mmHg 24%
    12:00 +44°C° 0 mm 6 mps 712 mmHg 21%
    13:00 +43°C° 0 mm 5 mps 712 mmHg 20%
    14:00 +44°C° 0 mm 4 mps 711 mmHg 18%
    15:00 +45°C° 0 mm 3 mps 711 mmHg 17%
    16:00 +45°C° 0 mm 3 mps 710 mmHg 17%
    17:00 +45°C° 0 mm 3 mps 710 mmHg 17%
    18:00 +45°C° 0 mm 3 mps 710 mmHg 17%
    19:00 +43°C° 0 mm 4 mps 711 mmHg 22%
    20:00 +41°C° 0 mm 5 mps 712 mmHg 27%
    21:00 +39°C° 0 mm 6 mps 712 mmHg 31%
    22:00 +38°C° 0 mm 4 mps 712 mmHg 31%
    23:00 +37°C° 0 mm 3 mps 713 mmHg 31%
    Show more